Regional Weather Roundup
Issued by NWS

Home | Current Version | Previous Version | Graphics & Text | Print | Product List | Glossary On
Versions: 1 2 3 4 5 6 7 8 9 10 11 12 13 14 15 16 17 18 19 20 21 22 23 24 25 26 27
000
ASUS45 KCYS 042310
RWRWY

WYOMING REGIONAL WEATHER ROUNDUP
NATIONAL WEATHER SERVICE CHEYENNE WY
400 PM MST SUN DEC 04 2016

NOTE:  "FAIR" INDICATES FEW OR NO CLOUDS BELOW 12,000 FEET
WITH NO SIGNIFICANT WEATHER AND/OR OBSTRUCTIONS TO VISIBILITY.

WYZ001-050000-
YELLOWSTONE NATIONAL PARK

CITY           SKY/WX    TMP DP  RH WIND       PRES   REMARKS
LK YELLOWSTONE   N/A     23  19  85 VRB7      29.66F WCI  15
W YELLOWSTONE  NOT AVBL

$$
WYZ002>013-054>058-071-098>099-050000-
NORTHERN WYOMING

CITY           SKY/WX    TMP DP  RH WIND       PRES   REMARKS
JACKSON        SNOW      28  28 100 S21       29.72F VSB 1/2 WCI  15
CODY           FAIR      36  25  64 VRB7      29.61F WCI  30
GREYBULL       FAIR      37  18  46 NW8       29.61F WCI  31
WORLAND        FAIR      40  21  46 N3        29.61F
SHERIDAN       FAIR      38  20  48 E9        29.59F WCI  31
BUFFALO        FAIR      40  15  36 NW3       29.59F
GILLETTE       MOCLDY    36  20  52 VRB5      29.61F WCI  32
HULETT         FAIR      34  19  55 S7        29.65F WCI  28
NEWCASTLE      FAIR      36  19  51 E8        29.69S WCI  29

$$
WYZ014>020-022>026-101>103-050000-
CENTRAL WYOMING

CITY           SKY/WX    TMP DP  RH WIND       PRES   REMARKS
BIG PINEY      FAIR      31  21  66 W17G31    29.81F WCI  19
PINEDALE       CLOUDY    30  23  74 SE3       29.81F
DUBOIS         LGT SNOW  30  21  69 N13G35    29.64F WCI  20
LANDER         FAIR      40  21  46 VRB7      29.66S
RIVERTON       FAIR      40  17  39 W8        29.64F WCI  34
CASPER         FAIR      39  18  42 SW31G40   29.68S WCI  27
DOUGLAS        FAIR      42  19  39 W14       29.68F

$$
WYZ021-027>030-104>119-050000-
SOUTHERN WYOMING

CITY           SKY/WX    TMP DP  RH WIND       PRES   REMARKS
EVANSTON       CLOUDY    35  16  45 SW16      29.91F WCI  25
KEMMERER         N/A     32  18  55 SW22G30   29.87F WCI  19
FORT BRIDGER   FAIR      38  19  45 W23G33    29.90F WCI  28
ROCK SPRINGS   CLOUDY    35  15  44 W12       29.88F WCI  27
DIXON          CLOUDY    34  15  45 SW13G22   29.96F WCI  25
RAWLINS        FAIR      34  15  46 SW32G49   29.82S WCI  20
SARATOGA       CLOUDY    34  21  60 S16G22    29.90S WCI  23
LARAMIE        CLOUDY    36  18  48 SW25G37   29.80F WCI  24
CHEYENNE       FAIR      42  18  37 W35G51    29.73F
TORRINGTON     FAIR      45  16  31 W5        29.72F
PINE BLUFFS    MOCLDY    46  18  31 W20G26    29.79S

$$




USA.gov is the U.S. government's official web portal to all federal, state and local government web resources and services.